Zurück zum Katalog

HYDRA-3

AktivWissenschaftSSO
NORAD 69022·PAYLOAD·🇧🇬 Bulgaria

Gestartet May 3, 2026 von Vandenberg Space Force Base

Loading…

Nächste Überflüge (nächste 24 Stunden)

TLE

AktuellSource: Space-Track

Epoche: Sep 14, 2026, 03:51 UTC

1 69022U 26100AU  26257.16059998  .00004090  00000-0  18937-3 0  9991
2 69022  97.3895 153.2337 0006243  54.5896 305.5922 15.20648458 20324

Verfolge HYDRA-3 in Echtzeit mit AllMySat

Download on the App Store